Regional Weather Roundup
Issued by NWS

Home | Current Version | Previous Version | Text Only | Print | Product List | Glossary On
Versions: 1 2 3 4 5 6 7 8 9 10 11 12 13 14 15 16 17 18 19 20 21 22 23 24 25 26 27 28 29 30 31 32 33 34 35 36 37 38 39 40 41 42 43 44 45 46 47 48 49 50
000
ASUS43 KFSD 071210
RWRSD

WEATHER ROUNDUP FOR SOUTH DAKOTA
NATIONAL WEATHER SERVICE SIOUX FALLS SD
700 AM CDT TUE JUL 07 2015

NOTE: "FAIR" INDICATES FEW OR NO CLOUDS BELOW 12,000 FEET WITH NO
SIGNIFICANT WEATHER AND/OR OBSTRUCTIONS TO VISIBILITY.


SDZ001>005-009-010-012>017-071300-
NORTHWEST AND NORTH CENTRAL SOUTH DAKOTA

CITY           SKY/WX    TMP DP  RH WIND       PRES   REMARKS
BUFFALO          N/A     53  50  89 E7        30.08F
FAITH            N/A     55  51  86 SE13      30.16S
MOBRIDGE       PTCLDY    56  52  86 E8        30.17S
$$

SDZ012>016-024>037-041>051-057-063-072>074-071300-
SOUTHWEST AND SOUTH CENTRAL SOUTH DAKOTA

CITY           SKY/WX    TMP DP  RH WIND       PRES   REMARKS
RAPID CTY ARPT CLEAR     56  54  93 S6        30.16F FOG
PIERRE         CLEAR     52  50  93 E7        30.17S FOG
CUSTER         MOCLDY    51  48  89 CALM      30.24F FOG
ELLSWORTH AFB  CLEAR     57  57 100 S6        30.15F FOG
PHILIP         CLEAR     56  55  97 E6        30.16F FOG
PINE RIDGE     MOCLDY    58  52  80 S5        30.18S
SPEARFISH      FAIR      55  50  82 E7        30.17S
WINNER         FAIR      58  53  84 SE5       30.18S HAZE
$$

SDZ004>011-016>023-039-040-071300-
NORTHEAST SOUTH DAKOTA

CITY           SKY/WX    TMP DP  RH WIND       PRES   REMARKS
ABERDEEN       CLEAR     51  49  92 NE6       30.20F
WATERTOWN      SUNNY     48  44  86 N7        30.19S
BROOKINGS      SUNNY     50  45  81 N5        30.21S
SISSETON         N/A     50  46  86 NW5       30.20R
$$

SDZ017-020-022-023-036>040-048>070-071300-
SOUTHEAST SOUTH DAKOTA

CITY           SKY/WX    TMP DP  RH WIND       PRES   REMARKS
SIOUX FALLS    PTCLDY    53  49  86 N6        30.18R
HURON          CLEAR     54  52  93 NE5       30.19S FOG
CHAMBERLAIN    CLEAR     54  52  95 E5        30.19S FOG
MITCHELL       CLEAR     54  53  97 CALM      30.19S FOG
YANKTON        CLEAR     54  48  82 CALM      30.17S
$$

ABBREVIATIONS USED IN REMARKS
   TC - TEMPERATURE IN CELSIUS
  WCI - WIND CHILL INDEX
   HX - HEAT INDEX
  VSB - VISIBILITY




USA.gov is the U.S. government's official web portal to all federal, state and local government web resources and services.